Temperature
28 28 28 29 30 30 31 30 30 31 33 31 31 31 31 31 31 31 30 29 28 27 26 25 24 23 22 21 21 20 20 20 19 19 19 18 18 18 17 17 17 17 17 17
28 28 29 30 31 30 30 30 30 31 32 31 30 30 31 31 31 31 30 29 28 27 26 24 23 23 22 21 21 20 20 20 19 19 19 18 18 18 17 17 17 17 17 17
28 29 30 30 30 30 30 30 30 30 31 31 30 29 30 31 31 31 30 30 29 28 26 24 23 23 22 21 20 20 20 19 19 19 19 18 18 17 17 17 17 17 17 17
29 30 30 30 29 30 29 30 30 30 30 29 30 28 30 30 30 30 30 29 29 28 26 25 23 23 22 21 20 20 20 19 19 19 18 18 18 17 17 17 17 17 17 17
28 29 29 29 30 30 30 31 30 30 29 29 29 29 30 30 30 30 30 29 29 28 26 25 24 23 22 21 20 19 19 19 19 19 18 18 18 17 17 17 17 17 16 16
29 30 30 30 30 30 30 30 30 29 29 27 28 29 28 30 30 30 30 29 28 27 26 25 24 23 22 21 20 19 19 19 19 18 18 18 18 17 17 17 17 17 16 16
28 29 30 30 29 30 29 28 27 27 27 27 29 28 28 30 30 30 29 28 27 27 26 25 24 23 22 21 20 19 19 18 18 18 18 18 18 17 17 17 17 16 16 16
26 27 28 29 29 28 29 28 26 26 26 28 29 28 28 30 30 29 29 28 27 26 26 25 24 23 22 21 20 19 19 18 18 18 18 17 17 17 17 17 17 16 16 16
26 27 29 29 30 29 28 28 29 27 27 27 27 28 28 29 29 28 28 28 27 26 25 24 23 22 21 21 20 19 19 18 18 18 17 17 17 17 17 17 16 16 16 16
27 26 28 29 29 29 29 29 28 27 25 26 27 27 27 27 28 28 28 27 26 26 25 23 22 22 21 20 20 19 19 18 18 18 17 17 17 17 17 16 16 16 16 16
27 26 27 28 27 27 28 28 27 27 26 26 25 26 28 27 27 27 27 27 26 25 24 23 22 21 20 19 19 19 18 18 18 17 17 17 17 17 17 16 16 16 16 16
26 26 25 26 28 29 28 28 27 25 25 26 25 26 27 27 27 27 27 26 25 24 23 22 21 20 20 19 19 18 18 18 18 17 17 17 16 16 16 16 16 16 16 16
25 24 23 24 26 27 27 27 27 27 26 25 25 25 27 27 27 26 26 25 23 23 22 21 21 20 19 19 18 18 18 18 18 17 17 17 16 16 16 16 16 16 16 15
24 23 23 23 25 26 26 26 27 26 25 25 25 25 25 26 25 25 25 24 23 22 21 21 20 19 19 18 18 18 18 17 17 17 17 16 16 16 16 16 16 15 15 15
24 23 23 24 25 26 26 26 26 26 26 25 25 25 25 25 25 25 24 23 22 22 21 21 20 19 18 18 18 17 17 17 17 17 16 16 16 16 15 15 15 15 15 15
23 22 23 23 24 25 25 26 26 26 26 26 26 25 25 25 25 24 23 23 22 21 20 20 19 18 18 17 17 17 17 17 17 16 16 16 16 15 15 15 15 15 15 15
22 21 21 22 24 24 24 25 25 25 26 25 25 25 25 25 24 23 23 22 22 21 20 19 18 18 17 17 17 16 16 16 16 16 16 16 15 15 15 15 15 15 15 15
21 20 21 21 22 21 24 26 26 26 25 25 25 25 25 24 23 23 22 22 21 20 19 19 18 17 17 17 16 16 16 16 16 16 16 15 15 15 15 15 15 15 15 15
22 20 20 21 21 21 23 24 24 24 24 25 24 24 24 23 23 22 22 21 20 20 19 18 17 17 17 16 16 16 16 16 16 16 16 15 15 15 15 15 15 14 14 14
22 21 20 20 20 20 21 23 24 24 23 24 24 24 24 23 22 22 21 20 20 19 18 17 17 17 16 16 16 16 15 15 15 15 15 15 15 15 15 15 14 15 14 14
20 20 19 20 20 21 21 22 23 22 21 22 22 22 22 22 21 20 19 19 19 18 17 17 17 16 16 16 15 15 15 15 15 15 15 15 15 15 15 15 14 14 14 14
20 20 19 20 19 19 20 21 20 20 20 20 20 19 19 19 19 19 18 18 18 17 17 16 16 16 15 15 15 15 15 15 15 15 15 15 15 14 14 14 14 14 14 14
19 19 19 19 19 19 19 19 19 19 19 19 19 18 18 18 18 18 18 17 17 17 16 16 16 15 15 15 15 15 14 14 14 14 14 14 14 14 14 14 14 14 14 14
18 19 19 18 19 19 19 19 18 18 18 18 18 17 17 18 18 17 17 16 16 16 16 16 15 15 15 14 14 14 14 14 14 14 14 14 14 14 14 14 14 14 14 14
16 17 17 17 17 18 18 17 17 17 17 17 17 17 17 17 17 17 16 16 16 15 15 15 15 15 14 14 14 14 14 14 14 14 14 14 14 14 14 14 14 14 14 14
16 16 16 16 16 17 17 17 17 17 17 16 16 16 16 16 16 16 16 15 15 15 15 15 14 14 14 14 14 13 13 13 13 13 13 14 14 14 14 14 14 14 14 14
Wind_Speed
14 14 16 17 17 16 15 14 13 11 9 10 11 11 10 10 10 10 10 10 10 10 9 9 11 12 11 9 9 8 7 7 5 4 4 3 3 2 2 2 3 3 2 1
14 18 18 16 15 16 17 17 15 12 9 8 10 12 11 10 10 9 9 10 10 10 11 10 10 11 10 10 10 9 8 7 6 5 4 3 3 3 3 2 3 3 2 2
19 15 16 16 16 16 16 15 14 13 10 10 10 13 12 11 11 10 9 9 10 11 13 13 12 11 11 10 10 9 8 8 6 6 4 4 3 2 3 3 3 3 2 2
18 18 15 14 16 15 15 14 14 15 13 10 12 11 12 12 12 12 11 9 9 10 12 12 12 11 11 10 10 8 8 7 6 6 5 5 4 3 3 2 3 3 3 2
15 15 16 15 15 14 14 13 14 15 14 13 14 13 10 10 12 12 11 10 9 8 10 11 12 10 10 10 10 9 8 7 7 6 5 4 3 3 2 3 3 3 3 2
18 16 15 15 14 13 12 13 14 15 13 15 17 15 11 9 11 11 11 9 8 9 8 9 11 11 10 9 9 10 9 7 7 6 5 4 3 3 3 3 3 2 2 2
18 18 15 13 14 14 14 12 10 11 12 13 14 13 8 6 6 7 9 9 8 7 8 8 10 11 11 10 10 11 10 8 7 7 5 4 3 3 3 3 3 3 2 2
15 15 15 14 14 12 15 16 13 11 11 11 10 11 8 6 4 4 6 9 9 8 8 9 9 9 9 10 9 9 10 9 8 7 5 4 3 2 2 2 2 3 2 2
11 13 14 15 14 15 15 16 15 14 15 13 9 7 4 4 8 7 7 8 9 9 8 9 9 8 8 9 9 9 10 9 8 7 6 5 4 3 3 3 2 2 1 2
12 11 11 12 12 16 17 14 10 12 11 13 12 10 8 9 8 9 9 8 8 9 9 8 9 8 7 8 8 8 8 8 8 7 6 6 5 4 3 3 3 2 2 1
13 11 12 12 14 15 15 16 12 11 12 12 11 6 2 6 6 6 7 7 9 9 8 8 8 7 7 7 7 7 7 8 8 7 5 5 4 4 3 3 3 3 2 2
10 9 12 14 14 13 14 14 13 11 11 11 10 5 2 6 6 5 6 7 7 8 8 8 9 8 7 6 6 6 7 7 7 7 6 5 5 4 4 3 3 3 3 3
6 7 10 12 13 12 14 14 14 13 11 11 12 6 4 5 5 4 7 8 7 8 8 8 8 8 7 6 5 5 5 6 7 7 7 6 5 4 4 3 3 3 3 2
5 8 12 14 10 10 13 14 13 13 12 12 13 7 3 3 4 4 5 9 8 7 8 8 8 7 7 6 5 5 4 4 6 6 6 6 5 4 4 4 4 3 3 3
6 11 14 16 16 15 15 15 16 15 14 13 11 8 5 5 5 5 6 7 9 7 8 8 8 7 6 6 5 4 3 3 4 5 5 5 5 4 4 4 4 3 2 3
5 9 13 16 17 16 16 15 15 15 15 14 13 9 5 6 5 5 6 6 8 7 7 7 8 7 6 6 6 5 4 4 4 5 5 5 5 5 4 4 4 4 3 2
6 8 12 14 15 14 16 14 14 14 13 11 11 8 3 3 4 4 5 6 6 7 8 7 7 7 6 6 5 4 4 4 4 4 4 4 4 4 4 4 4 4 3 3
8 8 8 11 11 15 11 9 11 12 10 9 6 4 3 2 3 4 4 5 5 5 7 7 6 6 6 6 5 5 5 5 4 4 4 4 4 4 4 4 4 3 3 3
9 7 7 9 11 12 10 7 7 8 9 6 5 4 3 4 4 4 4 4 4 5 6 6 6 6 5 6 5 4 4 4 4 4 4 4 4 5 5 5 4 3 3 3
11 9 9 10 11 10 6 7 8 8 8 3 3 2 3 5 4 2 4 4 5 6 6 6 6 6 5 5 5 4 3 3 3 3 3 3 4 4 4 5 4 4 3 3
13 12 13 13 12 7 4 8 8 7 3 3 3 1 0 1 2 4 4 4 4 5 6 6 6 6 5 5 5 4 3 3 2 2 2 3 3 4 4 4 4 4 4 3
9 10 11 11 11 7 4 5 2 2 4 3 4 4 4 6 6 5 4 4 4 4 5 6 5 5 4 4 4 4 3 2 2 2 2 2 3 4 4 4 4 4 4 4
4 4 4 4 4 1 3 3 3 4 4 4 4 4 3 3 4 3 4 3 3 3 4 4 5 5 4 4 3 4 3 3 2 2 2 2 2 2 3 4 5 4 4 4
2 3 2 2 3 3 3 3 4 4 3 4 3 2 0 1 2 2 3 2 1 2 2 3 5 5 4 3 3 3 3 3 3 3 2 3 3 4 4 4 4 4 4 3
4 4 3 3 3 3 2 3 4 4 3 2 1 1 0 1 1 2 2 3 2 2 2 2 4 4 5 4 4 3 3 3 3 3 2 3 4 4 3 2 1 2 1 2
3 3 3 3 3 3 2 2 3 2 2 2 2 2 2 2 1 1 2 2 2 3 3 3 4 4 4 4 4 3 3 3 3 3 3 3 3 3 3 3 2 4 3 5
Wind_Direction
216 222 229 230 232 246 257 266 266 261 239 222 237 245 230 223 218 212 199 188 183 176 168 157 158 159 160 156 154 156 158 147 153 154 168 173 167 158 162 151 138 137 160 184
225 227 233 239 242 245 255 262 268 267 248 238 240 248 243 228 221 214 201 190 182 175 159 159 161 160 160 161 158 158 159 156 159 157 161 167 164 169 165 145 138 151 169 183
229 232 226 234 244 246 248 254 263 269 263 246 253 250 244 231 216 209 208 201 186 176 164 161 167 165 162 162 162 166 160 158 164 158 160 157 156 174 157 153 151 152 171 171
238 241 240 234 238 243 248 252 261 267 264 253 247 252 232 221 212 209 202 202 193 175 162 163 168 165 164 161 156 152 154 154 159 158 164 168 165 169 165 158 149 163 171 170
240 237 241 240 242 244 252 258 256 260 261 261 255 255 245 219 210 204 197 197 189 175 166 168 164 161 160 159 156 152 149 151 154 159 161 167 163 163 152 150 146 169 167 172
249 244 239 242 245 246 251 260 258 251 252 250 251 254 242 235 210 196 188 185 175 170 164 160 157 156 157 157 158 155 152 152 155 158 157 162 167 157 151 151 155 171 162 159
243 241 238 240 240 237 236 243 246 241 237 243 242 247 240 225 213 184 171 173 165 161 154 148 153 160 158 156 158 155 154 156 159 160 164 165 172 167 156 161 163 165 160 161
235 232 229 227 231 238 230 233 239 247 250 257 244 239 234 208 160 148 157 159 154 162 158 150 152 154 153 152 149 152 154 159 163 162 160 158 168 168 153 164 170 156 171 174
243 237 224 225 225 234 235 234 246 256 264 265 253 228 205 183 150 157 170 159 159 161 154 149 146 145 150 148 147 153 155 156 160 161 158 150 149 157 163 158 156 154 171 160
257 265 244 222 224 232 239 241 244 249 259 259 256 232 202 191 180 169 165 159 159 151 148 144 139 141 143 140 141 148 144 153 158 163 170 162 163 169 163 147 145 151 149 126
255 256 253 235 224 228 229 233 237 248 256 259 259 250 198 163 169 173 166 162 153 147 144 142 133 131 128 130 138 144 145 154 155 159 156 145 155 160 154 153 156 158 147 135
248 258 254 247 240 240 239 238 236 237 245 256 264 255 198 152 155 162 158 144 138 140 138 136 135 135 136 139 139 137 151 156 157 152 148 148 154 155 153 153 158 157 152 154
249 255 249 245 235 229 236 243 243 245 245 249 253 241 163 138 147 157 148 132 125 139 138 141 141 142 142 139 135 134 149 155 154 148 150 151 158 157 156 158 154 147 148 156
252 251 251 249 250 237 239 249 250 245 242 249 250 242 175 163 144 141 131 134 142 149 145 148 147 146 143 140 140 136 135 147 149 144 148 152 161 163 162 158 152 154 157 158
245 248 255 261 264 262 252 244 243 246 249 254 260 243 192 171 164 153 139 145 149 147 151 152 150 144 145 144 142 144 150 146 145 147 150 151 156 159 161 159 154 148 155 157
237 253 260 261 258 257 257 253 247 248 250 253 257 255 198 165 151 141 140 152 148 153 152 147 145 147 150 151 152 153 152 146 141 149 151 153 160 164 163 160 154 151 145 136
245 248 252 257 259 260 250 245 247 247 247 253 257 259 221 163 144 155 154 154 156 161 154 153 152 153 154 153 155 160 159 151 151 152 153 158 157 163 165 164 151 148 139 131
247 263 255 254 257 249 251 255 250 249 246 238 230 244 216 148 117 111 121 135 142 154 156 154 150 154 154 147 148 153 160 158 164 164 163 163 161 159 158 149 142 142 138 138
230 241 257 253 246 252 256 267 269 265 250 231 225 220 203 145 132 124 94 91 109 126 133 138 145 155 152 150 149 152 155 156 161 170 171 172 168 160 164 162 156 153 148 160
218 219 239 251 252 251 262 286 288 271 242 222 227 223 211 166 188 143 84 76 90 101 114 128 139 142 143 149 148 152 157 156 161 167 173 174 171 166 165 156 158 162 167 179
213 218 230 244 251 254 298 301 289 246 241 360 18 17 56 95 86 95 84 83 90 102 120 127 137 143 149 151 147 149 154 159 169 153 154 156 156 157 162 155 160 170 180 184
220 221 226 236 244 248 309 289 285 354 14 22 38 34 55 82 98 101 95 88 92 106 126 133 138 141 144 145 148 154 156 151 151 133 137 141 157 184 174 165 175 186 191 189
235 243 241 236 239 285 358 22 34 25 360 35 51 52 46 92 116 112 96 94 86 107 125 138 140 140 142 147 152 159 149 149 149 141 140 152 173 187 167 174 183 193 201 200
309 315 250 244 247 295 337 18 20 34 32 34 66 81 7 110 123 125 112 106 102 118 125 137 147 147 147 153 155 153 159 159 158 160 158 173 187 191 175 188 189 196 198 203
314 308 270 239 280 301 342 16 10 33 30 28 56 54 314 114 142 140 134 155 172 166 155 167 162 160 164 164 154 158 158 161 165 164 175 204 203 192 173 178 187 191 159 167
292 295 288 284 318 301 312 356 2 12 25 18 6 3 40 68 88 132 151 158 167 170 158 159 161 164 164 165 163 160 158 163 168 182 195 213 213 194 186 173 141 60 102 113
Height
1473 1476 1473 1467 1464 1463 1461 1462 1462 1455 1449 1455 1461 1461 1459 1461 1462 1465 1469 1472 1477 1481 1485 1489 1493 1496 1499 1501 1503 1505 1506 1508 1509 1511 1512 1514 1515 1516 1517 1517 1518 1518 1519 1519
1470 1470 1463 1460 1459 1460 1461 1464 1461 1453 1448 1454 1459 1461 1457 1458 1459 1463 1466 1470 1474 1478 1482 1487 1490 1494 1497 1499 1500 1502 1504 1506 1507 1509 1511 1513 1514 1515 1516 1517 1517 1517 1518 1518
1466 1459 1456 1458 1459 1461 1461 1462 1461 1458 1452 1452 1459 1464 1458 1455 1457 1460 1464 1467 1470 1474 1479 1483 1488 1491 1494 1496 1498 1500 1502 1504 1506 1508 1510 1512 1513 1514 1515 1515 1516 1516 1517 1518
1458 1453 1452 1455 1457 1458 1463 1455 1456 1457 1461 1463 1460 1474 1458 1453 1455 1457 1460 1464 1468 1472 1476 1481 1485 1489 1491 1494 1496 1498 1500 1502 1504 1506 1508 1510 1511 1512 1513 1514 1515 1516 1516 1517
1454 1451 1452 1455 1454 1454 1456 1451 1454 1456 1461 1465 1460 1467 1459 1449 1454 1454 1457 1461 1465 1470 1474 1478 1482 1486 1489 1492 1494 1496 1499 1501 1503 1505 1506 1508 1510 1511 1512 1513 1514 1515 1515 1516
1449 1446 1447 1449 1449 1450 1451 1454 1454 1454 1459 1476 1464 1465 1463 1450 1449 1450 1454 1459 1464 1468 1472 1476 1480 1484 1487 1490 1493 1495 1497 1499 1501 1503 1505 1506 1508 1510 1511 1512 1513 1513 1514 1515
1452 1446 1444 1446 1451 1450 1452 1462 1474 1475 1475 1472 1454 1459 1457 1444 1443 1446 1451 1457 1463 1467 1471 1475 1479 1483 1486 1489 1491 1493 1495 1497 1500 1502 1503 1505 1507 1508 1510 1511 1511 1512 1513 1513
1457 1456 1445 1444 1449 1453 1452 1458 1474 1484 1477 1464 1452 1459 1450 1440 1442 1446 1450 1455 1461 1466 1470 1474 1478 1481 1484 1487 1489 1491 1494 1496 1498 1500 1502 1504 1506 1507 1508 1509 1510 1511 1512 1512
1452 1452 1440 1440 1443 1447 1452 1453 1450 1461 1463 1467 1460 1452 1447 1440 1443 1448 1452 1456 1460 1465 1470 1473 1477 1480 1483 1486 1488 1491 1492 1494 1497 1499 1501 1502 1504 1505 1507 1508 1509 1510 1511 1512
1444 1452 1440 1437 1441 1442 1444 1447 1454 1463 1477 1476 1464 1456 1455 1448 1445 1446 1451 1455 1460 1465 1469 1473 1477 1480 1482 1484 1487 1489 1491 1492 1494 1497 1499 1501 1503 1504 1506 1507 1507 1509 1510 1511
1443 1452 1447 1441 1444 1446 1446 1448 1452 1457 1460 1471 1474 1463 1441 1443 1445 1447 1450 1454 1459 1464 1469 1473 1477 1479 1482 1484 1486 1488 1489 1491 1493 1496 1498 1500 1502 1503 1504 1505 1506 1507 1508 1509
1445 1449 1453 1445 1436 1436 1440 1443 1449 1464 1465 1461 1467 1463 1440 1441 1444 1447 1450 1454 1460 1464 1469 1473 1477 1480 1482 1484 1486 1487 1488 1491 1493 1495 1497 1499 1500 1502 1503 1504 1505 1506 1507 1508
1448 1454 1462 1457 1448 1442 1443 1442 1443 1448 1454 1460 1467 1461 1441 1441 1444 1448 1451 1456 1461 1465 1469 1473 1477 1480 1482 1484 1486 1487 1488 1490 1492 1494 1496 1498 1499 1500 1501 1503 1504 1505 1505 1506
1450 1454 1460 1462 1452 1445 1446 1444 1442 1447 1455 1458 1455 1453 1447 1446 1447 1450 1453 1457 1462 1465 1469 1473 1477 1479 1482 1484 1485 1487 1488 1490 1492 1493 1495 1496 1498 1499 1500 1502 1503 1504 1505 1505
1449 1455 1453 1450 1444 1441 1441 1442 1442 1444 1447 1453 1450 1449 1448 1447 1449 1452 1455 1458 1461 1465 1469 1473 1476 1479 1481 1483 1485 1486 1487 1489 1491 1492 1494 1495 1497 1498 1500 1501 1502 1503 1504 1505
1449 1454 1454 1452 1443 1441 1441 1439 1438 1440 1441 1444 1445 1446 1442 1444 1448 1451 1455 1458 1461 1465 1469 1472 1475 1478 1480 1482 1484 1485 1486 1488 1490 1491 1493 1494 1496 1497 1498 1500 1501 1502 1503 1504
1451 1455 1458 1456 1444 1442 1446 1439 1439 1439 1438 1441 1445 1443 1440 1443 1447 1451 1454 1457 1461 1464 1468 1470 1473 1476 1478 1481 1483 1484 1486 1487 1489 1490 1492 1493 1495 1496 1497 1499 1500 1501 1502 1503
1454 1456 1455 1454 1453 1462 1442 1431 1432 1435 1435 1436 1439 1442 1442 1446 1449 1452 1455 1457 1460 1463 1466 1469 1472 1475 1477 1479 1481 1483 1485 1486 1488 1489 1491 1492 1494 1495 1497 1498 1499 1500 1501 1502
1449 1455 1458 1455 1455 1451 1440 1435 1435 1438 1438 1435 1438 1441 1442 1445 1449 1453 1455 1457 1460 1462 1465 1467 1471 1474 1477 1479 1481 1482 1484 1485 1487 1488 1490 1491 1492 1494 1495 1496 1498 1499 1500 1501
1447 1451 1458 1455 1458 1459 1447 1437 1435 1437 1441 1437 1438 1441 1443 1445 1450 1454 1456 1458 1460 1462 1464 1467 1470 1472 1475 1478 1480 1481 1483 1484 1486 1487 1488 1490 1491 1492 1493 1494 1496 1498 1499 1500
1449 1451 1455 1455 1455 1448 1444 1441 1438 1447 1447 1441 1442 1444 1445 1447 1451 1455 1457 1459 1461 1462 1465 1467 1470 1472 1475 1477 1479 1480 1482 1483 1485 1486 1487 1488 1490 1491 1492 1493 1495 1497 1498 1499
1447 1449 1451 1452 1456 1456 1445 1442 1446 1448 1445 1445 1446 1447 1448 1450 1452 1455 1457 1459 1461 1463 1465 1466 1469 1471 1473 1475 1477 1479 1480 1482 1484 1485 1486 1487 1488 1490 1491 1493 1494 1495 1496 1497
1444 1448 1447 1450 1453 1449 1447 1446 1447 1447 1448 1447 1448 1449 1451 1452 1454 1456 1458 1460 1462 1463 1465 1467 1468 1470 1472 1474 1476 1477 1479 1481 1482 1484 1486 1486 1487 1489 1490 1491 1492 1494 1495 1496
1446 1446 1446 1449 1448 1448 1448 1449 1448 1448 1449 1450 1451 1452 1453 1454 1456 1457 1459 1461 1462 1463 1465 1467 1468 1469 1471 1473 1475 1477 1478 1479 1481 1482 1484 1485 1487 1488 1489 1489 1490 1492 1493 1494
1452 1451 1450 1451 1452 1450 1449 1450 1451 1451 1451 1452 1453 1453 1453 1454 1455 1457 1458 1460 1462 1463 1464 1466 1467 1469 1471 1472 1474 1475 1477 1478 1479 1481 1482 1484 1485 1487 1487 1488 1489 1490 1491 1493
1453 1453 1454 1454 1454 1453 1452 1452 1452 1452 1453 1453 1453 1453 1453 1454 1455 1456 1458 1459 1460 1461 1462 1465 1466 1468 1470 1471 1472 1474 1475 1476 1477 1479 1481 1482 1483 1485 1486 1487 1488 1488 1489 1490